Dewpoint
70 69 69 69 68 69 69 69 70 70 70 70 70 69 68 68 68 67 67 67 66 66 65 65 65 64 63 62 64 66 67 67
67 68 68 68 68 69 68 69 69 69 69 68 68 67 66 65 65 65 64 64 63 61 61 62 62 62 62 65 64 65 65 66
66 66 66 66 66 67 67 67 67 67 67 66 66 66 64 62 62 61 58 58 59 58 59 56 55 56 59 62 63 62 63 65
66 65 65 65 65 66 66 66 66 66 66 66 66 64 61 61 60 58 54 53 52 52 51 49 49 51 52 54 55 57 58 62
66 65 64 64 64 65 65 65 65 65 66 67 63 62 61 59 53 50 48 48 46 45 45 45 44 45 47 49 49 51 52 56
65 64 64 63 64 64 64 63 59 56 57 62 59 55 51 49 47 46 44 44 44 43 44 44 44 45 45 45 46 47 47 51
65 64 64 63 64 63 62 59 56 51 53 55 52 50 47 44 44 43 43 44 44 43 43 44 43 43 44 42 41 41 41 55
65 65 65 63 61 59 58 55 51 49 49 48 49 47 44 43 43 43 43 43 43 43 42 42 42 43 43 41 41 40 40 54
65 65 63 60 57 55 52 50 48 46 47 46 45 45 44 43 42 43 43 42 42 42 42 42 42 41 39 39 40 41 41 55
65 62 58 55 52 51 49 48 46 45 45 45 45 45 44 43 42 43 43 42 42 42 42 41 40 39 37 40 41 44 54 56
60 56 54 52 51 49 47 46 45 45 44 44 45 45 44 42 43 43 43 41 41 41 41 40 36 35 37 40 41 43 51 51
56 54 52 50 49 47 45 44 44 44 44 44 44 44 43 42 43 43 42 40 40 40 40 39 38 37 39 43 46 50 50 49
54 52 50 48 46 43 43 42 43 43 43 43 43 44 43 42 43 42 40 39 38 39 39 37 36 38 37 40 41 44 43 42
54 52 49 47 44 42 41 42 42 42 42 41 42 42 42 41 42 40 39 37 37 37 37 36 36 37 35 38 37 35 37 36
52 50 47 46 43 41 41 42 41 40 40 40 41 41 42 41 40 40 38 37 35 36 36 35 33 34 35 35 34 35 36 37
52 49 47 45 42 40 39 39 38 39 39 39 40 40 40 39 39 38 37 36 35 35 35 35 33 32 32 33 35 36 33 30
50 48 46 45 43 40 39 39 38 39 39 38 38 38 37 37 36 36 35 35 34 34 33 33 33 32 31 30 32 30 31 30
49 48 48 45 42 39 38 38 39 38 38 37 37 36 36 35 34 34 34 34 33 33 33 32 32 31 30 31 29 28 27 27
49 49 48 43 40 39 38 39 38 38 37 36 35 35 34 33 32 32 32 32 32 33 32 32 31 29 28 29 29 29 29 28
50 49 45 43 40 39 39 39 39 38 37 37 35 34 34 33 31 30 31 32 31 31 31 30 30 27 26 27 27 27 28 27
Wind_Speed
15 14 13 15 17 17 17 15 15 15 16 17 15 15 15 12 11 10 9 8 7 6 6 7 9 9 11 14 11 11 10 11
16 14 13 14 14 17 18 16 15 16 16 16 16 14 13 11 9 9 8 7 8 10 11 10 11 11 13 15 6 8 10 10
16 15 13 14 13 13 17 16 15 15 15 15 14 12 11 10 10 9 10 7 10 14 15 13 12 13 13 14 10 10 10 10
16 15 15 15 12 13 14 14 13 13 14 12 13 12 11 10 10 11 14 15 14 13 13 12 11 9 9 10 9 10 9 9
19 18 17 16 15 14 13 15 11 10 9 10 11 11 11 9 12 11 10 11 10 10 10 10 10 9 9 10 10 10 9 9
20 19 17 16 15 14 14 15 14 12 10 10 13 14 16 14 13 10 10 9 10 9 9 9 10 10 10 9 10 9 9 11
21 18 17 17 15 15 13 16 14 12 12 12 16 16 17 14 12 11 10 9 9 8 8 8 8 8 8 9 9 8 11 10
24 20 16 16 15 13 12 14 15 14 14 13 14 17 18 16 12 11 10 8 7 7 6 5 6 5 6 8 6 7 8 10
27 24 15 16 16 14 13 14 15 14 13 12 14 16 16 15 13 11 9 7 8 7 7 7 7 8 9 8 8 9 7 13
24 20 20 19 18 15 13 12 13 12 10 9 11 14 14 13 12 10 8 9 9 8 7 7 6 7 6 5 5 8 15 13
23 24 25 23 20 19 16 13 13 10 9 8 10 13 13 15 12 11 10 10 9 6 9 6 10 12 10 9 7 7 11 12
29 26 29 26 23 20 17 15 12 8 7 7 7 9 11 12 12 12 11 11 9 8 10 9 7 8 10 16 15 13 11 11
31 29 26 26 23 23 19 18 14 9 7 6 7 8 10 11 12 12 11 11 9 6 5 12 16 10 6 15 19 15 16 14
27 26 25 22 21 17 15 19 11 12 9 7 7 9 9 10 12 11 11 12 11 10 6 4 8 12 4 4 7 8 14 14
29 28 26 23 21 20 18 16 15 9 8 8 7 9 9 11 11 10 10 10 11 9 8 6 5 8 12 3 3 5 4 3
26 25 23 21 21 21 25 18 19 9 14 10 9 9 9 9 9 10 10 9 10 10 9 8 6 5 3 10 10 3 3 4
22 22 21 20 19 22 22 21 13 18 18 18 13 10 11 10 10 10 10 10 10 12 12 12 8 8 5 3 6 8 7 4
20 21 16 19 21 24 25 24 22 21 19 17 15 11 10 10 9 9 9 10 11 11 11 12 11 11 10 10 5 3 3 4
16 15 14 16 18 20 20 22 23 25 23 19 19 15 12 12 11 10 9 10 11 11 11 11 9 11 9 10 11 9 6 5
15 10 13 13 15 14 16 19 17 18 19 17 13 12 11 10 9 8 8 8 11 12 11 10 12 11 11 10 12 9 9 5
Wind_Direction
127 132 126 129 131 132 127 127 129 128 123 120 118 111 107 102 92 84 81 77 68 54 33 21 11 1 348 323 315 329 322 313
132 129 130 125 129 132 127 123 125 122 123 125 125 120 111 104 101 100 88 77 58 32 26 21 17 19 14 20 22 353 344 325
141 135 132 127 130 140 133 138 138 130 132 135 130 127 122 115 113 97 74 70 67 65 71 62 46 38 38 43 45 33 16 29
143 136 138 137 143 142 140 141 148 149 148 142 138 136 126 127 106 91 84 82 77 67 62 55 47 39 30 33 40 42 27 22
151 150 153 150 152 154 149 144 145 144 149 140 132 124 125 107 100 96 85 73 66 56 50 47 43 34 27 22 18 26 18 16
153 157 161 160 154 158 157 141 133 128 135 150 132 124 118 112 108 102 83 70 68 56 51 43 40 37 41 39 36 27 17 37
158 161 164 169 169 169 154 146 136 128 118 125 134 129 121 118 111 101 89 81 77 65 55 47 37 25 29 26 19 17 35 89
158 165 173 168 162 155 141 134 128 118 120 126 136 132 131 128 120 106 98 96 92 88 76 60 46 24 22 8 356 357 30 114
165 167 166 158 149 134 129 130 126 124 130 132 132 132 132 132 125 115 118 110 98 80 64 57 42 19 5 347 346 1 18 120
168 158 149 141 130 121 119 121 118 116 116 118 122 130 130 125 119 115 114 83 69 58 48 50 29 7 350 359 12 32 103 111
156 146 143 135 126 124 122 120 118 120 114 104 119 129 128 125 119 119 101 86 83 80 58 56 20 7 7 14 22 79 102 111
150 151 146 141 134 127 121 117 116 112 109 103 114 125 123 116 117 111 103 92 77 80 87 54 38 14 45 63 62 81 77 78
155 151 150 142 141 138 136 138 133 121 113 100 91 124 116 114 118 112 106 99 91 97 94 52 35 17 84 70 61 60 65 62
154 149 151 149 145 143 139 139 135 132 122 93 95 107 116 111 125 123 121 107 87 77 101 116 57 33 114 114 108 68 53 51
155 154 154 151 143 128 124 112 118 115 109 96 82 96 104 113 119 122 110 104 98 87 82 97 116 51 49 134 140 166 152 16
152 153 149 148 147 146 152 150 147 154 145 130 107 101 99 97 109 106 104 106 101 89 82 93 110 111 63 51 66 102 157 153
146 145 149 158 157 152 152 153 148 140 139 137 131 123 119 116 117 118 116 111 104 99 90 85 88 99 106 124 89 69 67 112
138 150 154 161 162 163 164 159 147 144 147 146 147 142 127 119 121 123 125 118 112 104 99 96 94 90 81 71 83 127 97 103
137 153 159 165 168 173 166 156 158 159 156 155 159 158 157 155 146 147 137 131 118 108 101 97 89 85 77 88 82 80 100 101
159 157 151 163 176 168 157 156 160 161 157 160 157 155 149 150 145 142 139 132 120 113 104 103 101 96 84 86 81 65 77 98